TimeEST,TemperatureF,Dew PointF,Humidity,Sea Level PressureIn,VisibilityMPH,Wind Direction,Wind SpeedMPH,Gust SpeedMPH,PrecipitationIn,Events,Conditions,WindDirDegrees,DateUTC
12:53 AM,28.0,19.9,72,30.25,10.0,Calm,Calm,-,N/A,,Overcast,0,2013-12-14 05:53:00
1:53 AM,28.9,21.0,72,30.22,10.0,Calm,Calm,-,N/A,,Overcast,0,2013-12-14 06:53:00
2:53 AM,28.9,23.0,78,30.23,10.0,Calm,Calm,-,N/A,,Overcast,0,2013-12-14 07:53:00
3:53 AM,30.0,21.0,69,30.22,10.0,Calm,Calm,-,N/A,,Overcast,0,2013-12-14 08:53:00
4:53 AM,30.0,19.0,64,30.19,10.0,Calm,Calm,-,N/A,,Overcast,0,2013-12-14 09:53:00
5:53 AM,30.0,19.0,64,30.19,10.0,Calm,Calm,-,N/A,,Overcast,0,2013-12-14 10:53:00
6:53 AM,30.0,21.9,72,30.19,9.0,Calm,Calm,-,0.00,,Overcast,0,2013-12-14 11:53:00
7:53 AM,30.0,21.0,69,30.16,10.0,East,3.5,-,0.00,,Overcast,80,2013-12-14 12:53:00
8:49 AM,30.2,21.2,69,30.12,6.0,ESE,4.6,-,0.00,Snow,Light Snow,110,2013-12-14 13:49:00
8:53 AM,30.0,21.9,72,30.16,5.0,ESE,5.8,-,0.00,Snow,Light Snow,110,2013-12-14 13:53:00
9:01 AM,30.2,23.0,75,30.12,1.8,East,4.6,-,0.00,Snow,Light Snow,100,2013-12-14 14:01:00
9:15 AM,30.2,23.0,75,30.11,1.0,East,4.6,-,0.00,Snow,Light Snow,90,2013-12-14 14:15:00
9:28 AM,28.4,24.8,86,30.11,0.8,ESE,3.5,-,0.00,Snow,Light Snow,110,2013-12-14 14:28:00
9:49 AM,30.2,24.8,80,30.10,1.2,ESE,4.6,-,0.00,Snow,Light Snow,110,2013-12-14 14:49:00
9:53 AM,30.0,26.1,85,30.13,1.2,ESE,4.6,-,0.00,Snow,Light Snow,110,2013-12-14 14:53:00
10:03 AM,30.2,26.6,86,30.09,1.2,ESE,3.5,-,0.00,Snow,Light Snow,120,2013-12-14 15:03:00
10:33 AM,30.2,26.6,86,30.07,2.0,SE,6.9,-,0.00,Snow,Light Snow,130,2013-12-14 15:33:00
10:46 AM,30.2,28.4,93,30.06,4.0,SE,4.6,-,0.00,,Overcast,140,2013-12-14 15:46:00
10:53 AM,32.0,28.0,85,30.09,5.0,SE,4.6,-,0.00,,Overcast,140,2013-12-14 15:53:00
11:30 AM,33.8,28.4,81,30.01,1.8,SE,5.8,-,0.00,Snow,Light Snow,130,2013-12-14 16:30:00
11:41 AM,33.8,30.2,87,30.00,1.2,ESE,4.6,-,0.00,Snow,Light Snow,120,2013-12-14 16:41:00
11:53 AM,33.1,30.0,89,30.02,1.0,ESE,4.6,-,0.00,Snow,Light Snow,120,2013-12-14 16:53:00
12:05 PM,33.8,30.2,87,29.97,1.8,ESE,3.5,-,0.00,Snow,Light Snow,110,2013-12-14 17:05:00
12:14 PM,33.8,30.2,87,29.96,2.0,ESE,5.8,-,0.00,Snow,Light Snow,120,2013-12-14 17:14:00
12:27 PM,33.8,30.2,87,29.94,3.0,East,3.5,-,0.00,Snow,Light Snow,100,2013-12-14 17:27:00
12:53 PM,34.0,30.9,89,29.94,4.0,ESE,4.6,-,0.04,Snow,Light Snow,120,2013-12-14 17:53:00
1:53 PM,34.0,32.0,92,29.90,4.0,ESE,5.8,-,0.10,Rain,Rain,120,2013-12-14 18:53:00
2:53 PM,35.1,32.0,89,29.85,5.0,ESE,8.1,-,0.10,Rain,Light Rain,110,2013-12-14 19:53:00
3:48 PM,33.8,32.0,93,29.80,9.0,ESE,3.5,-,0.08,Rain,Light Rain,110,2013-12-14 20:48:00
3:53 PM,35.1,32.0,89,29.82,9.0,ESE,3.5,-,0.08,Rain,Light Rain,110,2013-12-14 20:53:00
4:11 PM,35.6,32.0,87,29.78,8.0,East,5.8,-,0.02,Rain,Light Rain,100,2013-12-14 21:11:00
4:36 PM,35.6,32.0,87,29.78,7.0,ESE,6.9,-,0.04,Rain,Light Rain,110,2013-12-14 21:36:00
4:43 PM,35.6,32.0,87,29.78,6.0,ESE,4.6,-,0.05,Rain,Light Rain,110,2013-12-14 21:43:00
4:53 PM,35.1,32.0,89,29.79,5.0,ESE,4.6,-,0.06,Rain,Light Rain,110,2013-12-14 21:53:00
5:53 PM,35.1,33.1,92,29.77,4.0,SE,3.5,-,0.03,Rain,Light Rain,140,2013-12-14 22:53:00
6:53 PM,36.0,34.0,93,29.75,5.0,Variable,4.6,-,0.01,,Overcast,0,2013-12-14 23:53:00
7:53 PM,36.0,34.0,93,29.73,4.0,Calm,Calm,-,0.04,Rain,Light Rain,0,2013-12-15 00:53:00
8:08 PM,35.6,33.8,93,29.70,4.0,Calm,Calm,-,0.00,,Overcast,0,2013-12-15 01:08:00
8:30 PM,35.6,35.6,100,29.70,2.5,Calm,Calm,-,0.01,Rain,Light Rain,0,2013-12-15 01:30:00
8:53 PM,36.0,34.0,93,29.72,2.5,ESE,4.6,-,0.01,Rain,Light Rain,120,2013-12-15 01:53:00
9:03 PM,35.6,33.8,93,29.69,2.5,SE,3.5,-,0.00,,Overcast,130,2013-12-15 02:03:00
9:26 PM,35.6,33.8,93,29.68,3.0,SE,4.6,-,0.01,,Overcast,140,2013-12-15 02:26:00
9:35 PM,35.6,33.8,93,29.68,2.0,SE,3.5,-,0.01,,Overcast,140,2013-12-15 02:35:00
9:48 PM,35.6,33.8,93,29.67,1.5,SE,3.5,-,0.01,,Overcast,140,2013-12-15 02:48:00
9:53 PM,35.1,34.0,96,29.70,1.2,Calm,Calm,-,0.01,,Overcast,0,2013-12-15 02:53:00
9:59 PM,35.6,33.8,93,29.67,0.8,Calm,Calm,-,N/A,,Overcast,0,2013-12-15 02:59:00
10:15 PM,37.4,35.6,93,29.67,1.2,Calm,Calm,-,0.00,Rain,Light Rain,0,2013-12-15 03:15:00
10:24 PM,35.6,35.6,100,29.67,3.0,Calm,Calm,-,0.00,Rain,Light Rain,0,2013-12-15 03:24:00
10:53 PM,37.9,36.0,93,29.69,9.0,WSW,4.6,-,0.00,,Overcast,250,2013-12-15 03:53:00
11:53 PM,37.0,35.1,93,29.70,5.0,West,5.8,-,0.01,Rain,Light Rain,260,2013-12-15 04:53:00